www.pogodaiklimat.ru

Погода и климат >> Архив погоды >> Индия >> Karwar


ПОГОДА в Karwar

  • Прогноз погоды в Karwar
  • Монитор погоды в Karwar
  • Климат города

АРХИВ ПОГОДЫ в Karwar

Время (UTC), дата Ветер
(напр.,м/с)
 
Видим.   Явления Облачность Т
(С)
Тd
(С)
f
(%)
Тe
(С)
Тes
(С)
Комфортность P
(гПа)
Po
(гПа)
Тmin
(С)
Tmax
(С)
R
(мм)
R24
(мм)
S
(см)
03 19.02 штиль 0 4000 м мгла ясно +23.8 +21.7 88 +30 +36 очень
душно
1012.5 1012.0 +21.9 +32.8
06 19.02 Ю 1 10 км 4/3 600 м
[Sc Ac trans]
+31.6 +22.9 60 +42 +54 опасность
перегрева
1012.6 1012.1
09 19.02 ЮЗ 1 10 км ясно +32.6 +23.7 60 +44 +60 опасность
перегрева
1009.6 1009.1
12 19.02 З 1 10 км 3/3 600 м
[Sc diur, vesp]
+31.6 +25.4 70 +46 +47 опасность
перегрева
1009.3 1008.8 +33.2
03 20.02 штиль 0 4000 м мгла ясно +24.0 +22.5 91 +31 +37 очень
душно
1011.8 1011.3 +22.9 +33.2
06 20.02 Ю 2 10 км ясно +31.6 +21.6 55 +40 +58 опасность
солнечного
удара
1012.5 1012.0
09 20.02 ЮЗ 2 10 км ясно +33.2 +22.4 53 +42 +57 опасность
перегрева
1009.9 1009.4
12 20.02 З 1 10 км ясно +31.6 +24.8 67 +45 +46 опасность
перегрева
1009.4 1008.9 +34.0
03 21.02 штиль 0 4000 м мгла ясно +23.6 +21.5 88 +30 +35 очень
душно
1011.3 1010.8 +22.1 +34.0
06 21.02 З 1 10 км ясно +31.6 +21.6 55 +40 +59 опасность
солнечного
удара
1011.3 1010.8
09 21.02 З 2 10 км ясно +33.4 +21.3 49 +41 +56 опасность
перегрева
1008.6 1008.1
12 21.02 СЗ 1 10 км ясно +32.4 +23.2 58 +43 +44 опасность
перегрева
1007.9 1007.4 +34.4
03 22.02 штиль 0 4000 м мгла ясно +22.6 +19.2 81 +29 +34 очень
душно
1010.8 1010.3 +20.9 +34.4
06 22.02 Ю 1 10 км ясно +31.0 +22.2 60 +40 +60 опасность
солнечного
удара
1010.4 1009.9
09 22.02 З 2 10 км ясно +33.2 +23.1 55 +43 +58 опасность
перегрева
1008.3 1007.8
12 22.02 СЗ 1 10 км ясно +32.2 +25.5 68 +47 +48 опасность
перегрева
1007.6 1007.1 +34.0
03 23.02 штиль 0 4000 м мгла ясно +23.0 +20.5 86 +30 +36 очень
душно
1011.0 1010.5 +21.9 +34.0
06 23.02 СЗ 1 10 км ясно +31.6 +22.2 58 +41 +61 опасность
перегрева
1011.3 1010.8
09 23.02 СЗ 1 10 км ясно +33.4 +22.3 52 +42 +59 опасность
перегрева
1008.8 1008.3
12 23.02 СЗ 1 10 км ясно +32.2 +23.6 61 +44 +45 опасность
перегрева
1008.2 1007.7 +34.0
03 24.02 штиль 0 10 км ясно +22.0 +17.1 74 +26 +32 душно 1012.6 1012.1 +20.1 +34.0
06 24.02 СЗ 1 10 км ясно +33.0 +14.5 33 +35 +55 опасность
солнечного
удара
1012.6 1012.1
09 24.02 СЗ 1 10 км ясно +36.4 +11.7 23 +36 +52 опасность
солнечного
удара
1009.6 1009.1
12 24.02 СЗ 1 10 км ясно +32.8 +19.8 46 +39 +40 очень
душно
1009.3 1008.8 +36.8
03 25.02 штиль 0 10 км ясно +21.6 +14.8 65 +25 +30 комфорт 1012.7 1012.2 +19.0 +36.8
06 25.02 СЗ 1 10 км ясно +33.6 +14.5 32 +35 +55 опасность
солнечного
удара
1013.0 1012.5
09 25.02 ЮЗ 2 10 км ясно +35.4 +15.4 30 +37 +51 опасность
солнечного
удара
1009.8 1009.3
12 25.02 СЗ 1 10 км ясно +33.4 +21.6 50 +41 +43 опасность
перегрева
1009.4 1008.9 +36.0

 

Местоположение метеостанции Karwar (Karnataka, Индия): широта 14.78 долгота 74.13 высота над уровнем моря 4 м.

В архиве по умолчанию представлена погода в Karwar за последнюю неделю. Архивные данные за месяц целиком и за предыдущие месяцы, начиная с января 2011 года, Вы можете получить, выбрав интересующий диапазон дат из раскрывающегося списка и нажав кнопку "Ввод!".

Внимание! Время в таблицах - всемирное. Для получения местного времени необходимо прибавить поправку, которая в Karwar равна 5.5 ч.

Смотрите также архив погоды в соседних городах и на ближайших метеорологических станциях:

Погода в Honavar (Karnataka, Индия) (65 км)
Погода в Mormugao (Goa, Индия) (80 км)
Погода в Panjim (Goa, Индия) (85 км)
Погода в Shirali (Karnataka, Индия) (90 км)
Погода в Dharwad (Karnataka, Индия) (120 км)
Погода в Belgaum (Karnataka, Индия) (127 км)
Погода в Belgaum Airport (Karnataka, Индия) (130 км)
Погода в Vengurla (Maharashtra, Индия) (133 км)
Погода в Haveri (Karnataka, Индия) (137 км)
Погода в Agumbe Emo (Karnataka, Индия) (175 км)

Пояснения к столбцам:

Ветер - указаны скорость ветра в м/с - средняя за 10 мин, порывы в срок и между сроками (в фигурных скобках) и направление, откуда дует ветер: С - северный, СВ - северо-восточный, В - восточный, ЮВ - юго-восточный, Ю - южный, ЮЗ - юго-западный, З - западный, СЗ - северо-западный.
Видимость - горизонтальная дальность видимости в метрах или километрах. При видимости от 1 до 10 км при отсутствии осадков обычно наблюдается дымка, при ухудшении видимости до 1 км и менее - туман. В сухую погоду видимость может ухудшаться дымом, пылью или мглою.
Явления - указаны атмосферные явления, наблюдавшиеся в срок или в последний час перед сроком; фигурными скобками обозначены явления, наблюдавшиеся между сроками (за 1-3 часа до срока); квадратными скобками обозначены град или гололедные отложения с указанием их диаметра в мм.
Облачность - указаны через наклонную черту общая и нижняя облачность в баллах и высота нижней границы облаков в метрах; квадратными скобками обозначены формы облаков: Ci - перистые, Cs - перисто-слоистые, Cc - перисто-кучевые, Ac - высококучевые, As - высокослоистые, Sc - слоисто-кучевые, Ns - слоисто-дождевые, Cu - кучевые, Cb - кучево-дождевые. Подробнее классификацию облаков см. в Атласе облаков (PDF).
T - Температура воздуха - температура, измеренная на высоте 2 м над землей.
Td - Температура точки росы - температура, при понижении до которой содержащийся в воздухе водяной пар достигнет насыщения.
f - Относительная влажность воздуха - влажноcть воздуха, измеренная на высоте 2 м над землей.
Te - Эффективная температура - температура, которую ощущает одетый по сезону человек в тени. Характеристика душности погоды. При расчете учитывается влияние влажности воздуха и скорости ветра на теплоощущения человека.
Tes - Эффективная температура на солнце - температура, которую ощущает человек, с поправкой на солнечный нагрев. Характеристика знойности погоды. Зависит от высоты солнца над горизонтом, облачности и скорости ветра. Ночью, в пасмурную погоду, а также при ветре 12 м/с и более поправка равна нулю.
P - Атмосферное давление - приведенное к уровню моря атмосферное давление.
Po - Атмосферное давление - измеренное на уровне метеостанции атмосферное давление.
Tmin - Минимальная температура - минимум температуры воздуха на высоте 2 м над землей.
Tmax - Максимальная температура - максимум температуры воздуха на высоте 2 м над землей.
R - Количество осадков - Количество выпавших осадков за период времени, мм. При наведении курсора мыши на число - период времени, за который выпало указанное количество осадков.
R24 - Количество осадков - Количество выпавших осадков за 24 часа, мм.
S - Снежный покров - Высота снежного покрова, см. При наведении курсора мыши на число - состояние снежного покрова и степень покрытия местности в баллах.